Hourly Data Report for September 07, 2017

All times are specified in Local Standard Time (LST). Add 1 hour to adjust for Daylight Saving Time where and when it is observed.

NORTH CAPE
PRINCE EDWARD ISLAND

47°03'29.000" N
63°59'55.000" W
7.60 m
8300516
71987
WNE

Download Data

Hourly Data (September 2017)
Hourly Data Report for September 7, 2017
Temp Definition
°C
Dew Point Temp Definition
°C
Rel Hum Definition
%
Wind Dir Definition
10's deg

Wind Spd Definition
km/h
Visibility Definition
km
Stn Press Definition
kPa
Hmdx Definition


Wind Chill Definition


Weather Definition


TIME
00:00 17.6 16.6 94 16 9   101.44     LegendNANA
01:00 17.0 16.2 95 16 11   101.37     LegendNANA
02:00 16.4 15.7 95 16 18   101.31     LegendNANA
03:00 17.5 16.8 96 17 13   101.29     LegendNANA
04:00 16.9 16.2 95 16 13   101.25     LegendNANA
05:00 16.5 15.8 95 16 17   101.19     LegendNANA
06:00 16.5 15.8 96 16 19   101.13     LegendNANA
07:00 16.3 15.6 96 16 18   101.04     LegendNANA
08:00 16.5 15.8 96 16 19   100.93     LegendNANA
09:00 16.3 15.6 96 16 21   100.85     LegendNANA
10:00 16.4 15.7 96 16 20   100.75     LegendNANA
11:00 16.3 15.7 96 16 20   100.69     LegendNANA
12:00 16.9 16.3 96 17 14   100.62     LegendNANA
13:00 17.4 16.0 92 17 18   100.54     LegendNANA
14:00 16.7 15.5 93 16 18   100.46     LegendNANA
15:00 17.7 16.1 91 18 20   100.39     LegendNANA
16:00 16.9 14.7 87 18 26   100.36     LegendNANA
17:00 16.5 14.1 85 18 27   100.35     LegendNANA
18:00 17.8 13.8 77 20 25   100.35     LegendNANA
19:00 18.0 13.9 77 20 30   100.39     LegendNANA
20:00 17.5 13.7 79 20 29   100.48     LegendNANA
21:00 16.8 13.7 82 21 25   100.56     LegendNANA
22:00 16.3 13.5 84 21 26   100.62     LegendNANA
23:00 14.9 13.0 89 20 17   100.65     LegendNANA

Notes on Data Quality.

Legend

  • E = Estimated
  • M = Missing
  • NA = Not Available
  • ‡ = Partner data that is not subject to review by the National Climate Archives
Date modified: